Regional Weather Roundup
Issued by NWS

Home | Current Version | Previous Version | Text Only | Print | Product List | Glossary Off
Versions: 1 2 3 4 5 6 7 8 9 10 11 12 13 14 15 16 17 18 19 20 21 22 23 24 25 26 27 28 29 30 31 32 33 34 35 36 37 38 39 40 41 42 43 44 45 46 47 48 49 50

000
ASUS43 KLSX 222207
RWRMO

WEATHER SUMMARY FOR MISSOURI
NATIONAL WEATHER SERVICE SPRINGFIELD MO
500 PM CDT TUE APR 22 2014

NOTE: "FAIR" INDICATES FEW OR NO CLOUDS BELOW 12,000 FEET WITH NO
       SIGNIFICANT WEATHER AND/OR OBSTRUCTIONS TO VISIBILITY.
       CURRENT SKY AND/OR WEATHER CONDITIONS ARE NOT AVAILABLE FOR
       CHILLICOTHE AND FARMINGTON.

MOZ001>031-035>038-043-044-053-054-222300-
...NORTHERN AND WESTERN MISSOURI...

CITY           SKY/WX    TMP DP  RH WIND       PRES   REMARKS
KANSAS CTY INT MOSUNNY   69  31  24 N9        30.04F
KANSAS C DTWN  SUNNY     70  32  24 MISG      30.03F
LEE`S SUMMIT   SUNNY     68  33  27 CALM      30.04F
ST JOSEPH      SUNNY     70  33  25 NE7       30.03F
CHILLICOTHE      N/A     68  35  29 N6        30.04F
KIRKSVILLE     SUNNY     66  33  29 VRB6      30.04F

$$
MOZ066>068-077>081-088>096-101>105-222300-
...SOUTHWEST MISSOURI...

CITY           SKY/WX    TMP DP  RH WIND       PRES   REMARKS
SPRINGFIELD    SUNNY     70  37  29 N7        30.01F
JOPLIN         SUNNY     70  38  31 VRB7      30.03F

$$
MOZ032>034-039>042-045>050-055>058-069>072-222300-
...CENTRAL MISSOURI...

CITY           SKY/WX    TMP DP  RH WIND       PRES   REMARKS
COLUMBIA       SUNNY     67  38  34 N8        30.02F
JEFFERSON CITY SUNNY     69  28  21 N7        30.01F
ROLLA            N/A     67  33  28 NW14      30.00F
SEDALIA        SUNNY     69  34  27 N9        30.04F
WHITEMAN AFB   SUNNY     67  26  21 E5        30.03F
OSAGE BEACH    SUNNY     68  34  28 NW10G17   30.03S

$$
MOZ051-052-059>065-222300-
...EAST CENTRAL MISSOURI...

CITY           SKY/WX    TMP DP  RH WIND       PRES   REMARKS
ST LOUIS INTL  NOT AVBL
SPIRIT OF STL  SUNNY     68  38  33 NW8       29.99F
ST CHARLES     SUNNY     68  34  28 NW16      29.98F

$$
MOZ072>076-082>087-097>100-106>115-222300-
...SOUTH CENTRAL AND SOUTHEAST MISSOURI...

CITY           SKY/WX    TMP DP  RH WIND       PRES   REMARKS
CAPE GIRARDEAU SUNNY     71  37  28 N18       29.95R
FARMINGTON     SUNNY     70  36  28 N8G16     30.00S
POPLAR BLUFF   SUNNY     76  36  23 NW10G18   29.92S
WEST PLAINS    SUNNY     73  35  25 N7        29.98F

$$



USA.gov is the U.S. government's official web portal to all federal, state and local government web resources and services.